CRUISE,DATE,TIME,LAT,LONG,ATM_PRE,FCO2_WAT,EQ_TMP,SST,SSS
GEF-Patagonia-2,3/10/2006,17:08,-38.47,-57.67,1017.6,341.4,19.16,18.89,33.31
GEF-Patagonia-2,3/10/2006,17:18,-38.49,-57.63,1017.4,337.0,18.98,18.90,33.68
GEF-Patagonia-2,3/10/2006,17:28,-38.51,-57.6,1017.4,331.3,19.10,19.02,33.67
GEF-Patagonia-2,3/10/2006,17:38,-38.52,-57.56,1017.3,338.1,19.19,18.94,33.62
GEF-Patagonia-2,3/10/2006,17:48,-38.53,-57.52,1017.2,347.7,19.11,19.10,33.68
GEF-Patagonia-2,3/10/2006,17:58,-38.54,-57.49,1017.2,344.0,19.18,19.03,33.63
GEF-Patagonia-2,3/10/2006,18:18,-38.57,-57.41,1017.1,336.5,19.32,18.84,33.62
GEF-Patagonia-2,3/10/2006,18:28,-38.58,-57.37,1017.3,334.8,19.16,18.86,33.60
GEF-Patagonia-2,3/10/2006,18:37,-38.6,-57.33,1017.1,331.6,19.16,18.89,33.58
GEF-Patagonia-2,3/10/2006,18:47,-38.61,-57.29,1017.3,325.5,19.11,18.79,33.60
GEF-Patagonia-2,3/10/2006,18:57,-38.62,-57.26,1017.1,325.3,19.00,18.80,33.59
GEF-Patagonia-2,3/10/2006,19:08,-38.62,-57.26,1017.2,322.9,18.92,18.63,33.56
GEF-Patagonia-2,3/10/2006,19:28,-38.61,-57.25,1017.2,326.1,18.83,18.62,33.59
GEF-Patagonia-2,3/10/2006,19:38,-38.61,-57.25,1017.1,328.2,18.89,18.69,33.59
GEF-Patagonia-2,3/10/2006,19:48,-38.61,-57.23,1016.7,328.5,18.87,18.63,33.57
GEF-Patagonia-2,3/10/2006,20:16,-38.67,-57.14,1017.1,323.6,18.62,18.52,33.56
GEF-Patagonia-2,3/10/2006,20:26,-38.69,-57.11,1016.9,319.6,18.76,18.47,33.58
GEF-Patagonia-2,3/10/2006,20:35,-38.72,-57.07,1016.7,317.1,18.65,18.28,33.57
GEF-Patagonia-2,3/10/2006,20:45,-38.74,-57.04,1016.6,317.3,18.52,18.27,33.58
GEF-Patagonia-2,3/10/2006,20:56,-38.76,-57.01,1017.0,314.3,18.40,18.11,33.55
GEF-Patagonia-2,3/10/2006,21:06,-38.78,-56.98,1016.9,316.7,18.37,18.12,33.58
GEF-Patagonia-2,3/10/2006,21:26,-38.82,-56.91,1017.3,315.8,18.09,17.72,33.56
GEF-Patagonia-2,3/10/2006,21:36,-38.84,-56.88,1017.1,321.3,18.05,17.94,33.57
GEF-Patagonia-2,3/10/2006,21:46,-38.82,-56.87,1017.1,316.7,18.19,17.94,33.59
GEF-Patagonia-2,3/10/2006,21:56,-38.8,-56.87,1016.9,316.9,18.19,17.91,33.56
GEF-Patagonia-2,3/10/2006,22:06,-38.8,-56.87,1017.3,316.8,18.06,17.75,33.57
GEF-Patagonia-2,3/10/2006,22:16,-38.8,-56.87,1016.8,315.9,18.18,17.81,33.54
GEF-Patagonia-2,3/10/2006,22:36,-38.82,-56.82,1016.9,316.1,18.26,17.88,33.58
GEF-Patagonia-2,3/10/2006,22:46,-38.84,-56.79,1016.5,317.8,18.30,18.02,33.57
GEF-Patagonia-2,3/10/2006,22:56,-38.87,-56.76,1016.9,321.5,17.95,17.97,33.56
GEF-Patagonia-2,3/10/2006,23:07,-38.89,-56.73,1016.7,320.6,17.93,17.93,33.56
GEF-Patagonia-2,3/10/2006,23:17,-38.92,-56.71,1016.9,319.7,17.91,17.88,33.55
GEF-Patagonia-2,3/10/2006,23:27,-38.94,-56.69,1017.0,318.6,17.89,17.83,33.54
GEF-Patagonia-2,3/10/2006,23:46,-38.98,-56.63,1017.3,316.5,17.84,17.73,33.53
GEF-Patagonia-2,3/10/2006,23:56,-38.95,-56.6,1017.3,315.3,17.82,17.65,33.52
GEF-Patagonia-2,3/11/2006,0:06,-38.93,-56.57,1017.3,309.2,17.70,17.38,33.57
GEF-Patagonia-2,3/11/2006,0:17,-38.9,-56.54,1017.9,302.5,17.71,17.09,33.60
GEF-Patagonia-2,3/11/2006,0:27,-38.88,-56.51,1018.0,307.3,17.50,17.09,33.59
GEF-Patagonia-2,3/11/2006,0:38,-38.88,-56.51,1017.5,310.2,17.34,17.14,33.57
GEF-Patagonia-2,3/11/2006,0:58,-38.88,-56.51,1017.8,308.9,17.35,16.99,33.60
GEF-Patagonia-2,3/11/2006,1:08,-38.88,-56.48,1017.7,305.4,17.54,17.07,33.62
GEF-Patagonia-2,3/11/2006,1:18,-38.91,-56.46,1018.0,305.4,17.34,16.96,33.62
GEF-Patagonia-2,3/11/2006,1:28,-38.94,-56.44,1017.7,306.4,17.27,16.98,33.63
GEF-Patagonia-2,3/11/2006,1:38,-38.97,-56.43,1017.9,305.7,17.16,16.81,33.64
GEF-Patagonia-2,3/11/2006,1:48,-38.99,-56.41,1017.6,303.3,17.08,16.70,33.66
GEF-Patagonia-2,3/11/2006,2:08,-39.05,-56.39,1017.7,304.1,17.00,16.73,33.66
GEF-Patagonia-2,3/11/2006,2:18,-39.06,-56.36,1017.7,307.0,17.11,16.73,33.66
GEF-Patagonia-2,3/11/2006,2:28,-39.04,-56.32,1017.6,307.8,16.96,16.74,33.66
GEF-Patagonia-2,3/11/2006,2:38,-39.02,-56.29,1017.6,304.5,17.05,16.69,33.67
GEF-Patagonia-2,3/11/2006,2:48,-39.01,-56.25,1017.9,306.5,17.03,16.75,33.63
GEF-Patagonia-2,3/11/2006,2:58,-39,-56.21,1017.8,307.1,17.04,16.85,33.65
GEF-Patagonia-2,3/11/2006,3:44,-38.99,-56.15,1017.5,295.4,16.90,16.50,33.68
GEF-Patagonia-2,3/11/2006,3:54,-38.99,-56.15,1017.8,297.0,16.85,16.51,33.55
GEF-Patagonia-2,3/11/2006,4:04,-38.98,-56.15,1017.6,297.1,16.89,16.58,33.70
GEF-Patagonia-2,3/11/2006,4:14,-38.98,-56.15,1017.5,300.0,16.89,16.76,33.71
GEF-Patagonia-2,3/11/2006,4:24,-38.98,-56.15,1017.5,299.4,16.78,16.55,33.67
GEF-Patagonia-2,3/11/2006,4:34,-38.98,-56.15,1017.6,298.5,16.86,16.58,33.70
GEF-Patagonia-2,3/11/2006,4:54,-38.98,-56.14,1017.4,295.9,16.90,16.48,33.70
GEF-Patagonia-2,3/11/2006,5:04,-38.99,-56.13,1017.7,296.8,16.86,16.55,33.70
GEF-Patagonia-2,3/11/2006,5:14,-38.99,-56.12,1017.3,298.8,16.73,16.55,33.62
GEF-Patagonia-2,3/11/2006,5:24,-39.01,-56.09,1017.4,299.3,16.77,16.56,33.65
GEF-Patagonia-2,3/11/2006,5:34,-39.03,-56.05,1017.7,299.1,16.73,16.43,33.68
GEF-Patagonia-2,3/11/2006,5:44,-39.05,-56.02,1017.4,300.5,16.54,16.19,33.70
GEF-Patagonia-2,3/11/2006,6:04,-39.08,-55.95,1017.8,308.9,16.06,15.71,33.73
GEF-Patagonia-2,3/11/2006,6:15,-39.09,-55.92,1017.4,309.8,15.73,15.36,33.74
GEF-Patagonia-2,3/11/2006,6:25,-39.1,-55.89,1017.5,308.5,15.35,14.89,33.75
GEF-Patagonia-2,3/11/2006,6:35,-39.12,-55.85,1017.8,311.2,15.19,14.79,33.58
GEF-Patagonia-2,3/11/2006,8:35,-39.11,-55.76,1017.6,319.7,14.74,14.51,33.74
GEF-Patagonia-2,3/11/2006,8:45,-39.11,-55.76,1017.8,310.7,14.84,14.44,33.76
GEF-Patagonia-2,3/11/2006,8:56,-39.1,-55.76,1017.9,310.5,14.77,14.50,33.76
GEF-Patagonia-2,3/11/2006,9:06,-39.09,-55.76,1017.5,311.3,14.78,14.55,33.76
GEF-Patagonia-2,3/11/2006,9:16,-39.1,-55.74,1017.7,310.5,14.87,14.64,33.75
GEF-Patagonia-2,3/11/2006,9:36,-39.14,-55.69,1017.4,306.8,14.98,14.48,33.74
GEF-Patagonia-2,3/11/2006,9:46,-39.17,-55.66,1017.3,306.1,14.75,14.42,33.75
GEF-Patagonia-2,3/11/2006,9:56,-39.19,-55.63,1017.4,304.6,14.46,14.07,33.77
GEF-Patagonia-2,3/11/2006,10:07,-39.21,-55.6,1017.4,309.0,14.15,14.01,33.78
GEF-Patagonia-2,3/11/2006,10:17,-39.24,-55.57,1017.7,311.6,14.16,13.95,33.81
GEF-Patagonia-2,3/11/2006,10:27,-39.26,-55.54,1017.6,309.2,14.24,13.74,33.80
GEF-Patagonia-2,3/11/2006,11:12,-39.27,-55.41,1018.7,318.1,13.71,13.42,33.85
GEF-Patagonia-2,3/11/2006,11:22,-39.27,-55.41,1019.3,316.1,13.75,13.33,33.84
GEF-Patagonia-2,3/11/2006,11:32,-39.27,-55.41,1019.6,319.3,13.65,13.49,33.83
GEF-Patagonia-2,3/11/2006,11:42,-39.27,-55.41,1019.3,320.6,13.62,13.43,33.82
GEF-Patagonia-2,3/11/2006,11:52,-39.27,-55.41,1019.7,320.0,13.61,13.39,33.83
GEF-Patagonia-2,3/11/2006,12:02,-39.27,-55.41,1020.1,320.5,13.52,13.29,33.84
GEF-Patagonia-2,3/11/2006,12:22,-39.27,-55.4,1019.6,317.0,13.67,13.25,33.84
GEF-Patagonia-2,3/11/2006,12:33,-39.27,-55.39,1019.5,316.8,13.65,13.26,33.84
GEF-Patagonia-2,3/11/2006,12:43,-39.27,-55.39,1019.0,320.2,13.56,13.42,33.85
GEF-Patagonia-2,3/11/2006,12:53,-39.27,-55.38,1019.3,316.8,13.72,13.46,33.81
GEF-Patagonia-2,3/11/2006,13:03,-39.27,-55.37,1019.4,311.4,13.92,13.39,33.86
GEF-Patagonia-2,3/11/2006,13:13,-39.27,-55.36,1019.6,315.0,13.75,13.58,33.85
GEF-Patagonia-2,3/11/2006,13:33,-39.3,-55.29,1020.2,309.4,13.93,13.50,33.84
GEF-Patagonia-2,3/11/2006,13:44,-39.31,-55.25,1019.8,312.8,13.97,13.71,33.86
GEF-Patagonia-2,3/11/2006,13:54,-39.33,-55.21,1019.7,313.7,14.16,13.97,33.85
GEF-Patagonia-2,3/11/2006,14:04,-39.34,-55.17,1020.0,312.4,14.34,14.03,33.84
GEF-Patagonia-2,3/11/2006,14:14,-39.36,-55.13,1019.9,310.0,14.49,14.24,33.83
GEF-Patagonia-2,3/11/2006,14:24,-39.38,-55.09,1019.7,308.4,14.68,14.45,33.81
GEF-Patagonia-2,3/11/2006,14:44,-39.4,-55.03,1019.6,306.6,14.73,14.28,33.82
GEF-Patagonia-2,3/11/2006,14:54,-39.39,-55.03,1019.4,310.5,14.58,14.37,33.81
GEF-Patagonia-2,3/11/2006,15:04,-39.39,-55.03,1019.2,307.4,14.64,14.13,33.81
GEF-Patagonia-2,3/11/2006,15:14,-39.39,-55.03,1019.3,311.6,14.47,14.24,33.81
GEF-Patagonia-2,3/11/2006,15:24,-39.39,-55.03,1019.3,311.2,14.53,14.31,33.82
GEF-Patagonia-2,3/11/2006,15:34,-39.39,-55.03,1018.9,309.2,14.61,14.29,33.81
GEF-Patagonia-2,3/11/2006,15:54,-39.39,-55.03,1019.3,309.3,14.67,14.38,33.82
GEF-Patagonia-2,3/11/2006,16:04,-39.4,-55.03,1019.2,308.9,14.72,14.44,33.82
GEF-Patagonia-2,3/11/2006,16:14,-39.4,-55.02,1019.1,308.2,14.68,14.38,33.81
GEF-Patagonia-2,3/11/2006,16:24,-39.4,-55.01,1019.5,308.3,14.73,14.44,33.81
GEF-Patagonia-2,3/11/2006,16:34,-39.4,-55,1019.7,307.4,14.82,14.42,33.81
GEF-Patagonia-2,3/11/2006,16:44,-39.41,-54.99,1019.6,310.3,14.75,14.55,33.81
GEF-Patagonia-2,3/11/2006,17:04,-39.43,-54.92,1019.2,311.2,14.53,14.26,33.83
GEF-Patagonia-2,3/11/2006,17:14,-39.45,-54.88,1019.6,315.9,14.51,14.21,33.84
GEF-Patagonia-2,3/11/2006,17:24,-39.46,-54.84,1019.1,316.8,14.67,14.40,33.87
GEF-Patagonia-2,3/11/2006,17:35,-39.48,-54.8,1018.9,319.4,14.73,14.54,33.87
GEF-Patagonia-2,3/11/2006,17:45,-39.5,-54.77,1019.3,317.7,17.40,17.72,34.29
GEF-Patagonia-2,3/11/2006,17:55,-39.52,-54.74,1019.1,313.0,18.54,18.23,34.28
GEF-Patagonia-2,3/11/2006,18:41,-39.55,-54.6,1018.7,322.7,19.69,19.50,34.60
GEF-Patagonia-2,3/11/2006,18:51,-39.55,-54.6,1018.6,320.9,19.62,19.50,34.58
GEF-Patagonia-2,3/11/2006,19:01,-39.55,-54.6,1018.7,317.9,19.66,19.40,34.58
GEF-Patagonia-2,3/11/2006,19:11,-39.55,-54.6,1018.4,318.5,19.67,19.45,34.59
GEF-Patagonia-2,3/11/2006,19:21,-39.55,-54.6,1018.3,318.6,19.63,19.41,34.58
GEF-Patagonia-2,3/11/2006,19:31,-39.55,-54.6,1018.2,317.8,19.71,19.34,34.59
GEF-Patagonia-2,3/11/2006,19:52,-39.55,-54.6,1018.6,321.4,19.61,19.45,34.57
GEF-Patagonia-2,3/11/2006,20:02,-39.55,-54.6,1018.4,322.5,19.50,19.36,34.58
GEF-Patagonia-2,3/11/2006,20:12,-39.55,-54.6,1018.4,322.7,19.56,19.46,34.58
GEF-Patagonia-2,3/11/2006,20:22,-39.55,-54.6,1018.4,322.1,19.54,19.42,34.57
GEF-Patagonia-2,3/11/2006,20:32,-39.57,-54.61,1018.3,320.1,19.46,19.23,34.58
GEF-Patagonia-2,3/11/2006,20:42,-39.6,-54.63,1018.1,321.3,19.71,19.60,34.59
GEF-Patagonia-2,3/11/2006,21:02,-39.67,-54.66,1018.4,310.7,18.60,18.08,34.20
GEF-Patagonia-2,3/11/2006,21:12,-39.7,-54.68,1018.3,310.0,18.12,17.89,34.11
GEF-Patagonia-2,3/11/2006,21:22,-39.74,-54.69,1018.0,305.7,18.21,17.74,34.31
GEF-Patagonia-2,3/11/2006,21:32,-39.77,-54.71,1018.0,297.9,15.83,15.17,33.98
GEF-Patagonia-2,3/11/2006,21:42,-39.8,-54.73,1017.9,299.0,15.35,15.07,33.90
GEF-Patagonia-2,3/11/2006,21:52,-39.83,-54.74,1017.9,303.0,15.21,14.97,33.88
GEF-Patagonia-2,3/11/2006,22:12,-39.9,-54.78,1018.0,299.0,15.40,15.12,33.89
GEF-Patagonia-2,3/11/2006,22:22,-39.93,-54.79,1018.1,296.5,16.04,16.12,34.05
GEF-Patagonia-2,3/11/2006,22:32,-39.96,-54.81,1018.0,305.4,17.80,17.79,34.37
GEF-Patagonia-2,3/11/2006,22:43,-39.99,-54.83,1018.0,306.5,18.18,17.90,34.34
GEF-Patagonia-2,3/11/2006,22:53,-40.02,-54.85,1018.1,309.7,18.19,17.99,34.28
GEF-Patagonia-2,3/11/2006,23:03,-40.05,-54.87,1018.1,307.5,18.15,17.59,34.32
GEF-Patagonia-2,3/11/2006,23:23,-40.12,-54.9,1017.7,315.6,14.32,13.74,33.90
GEF-Patagonia-2,3/11/2006,23:32,-40.15,-54.92,1018.0,335.5,13.05,12.46,33.98
GEF-Patagonia-2,3/11/2006,23:42,-40.18,-54.93,1018.0,345.4,12.71,12.31,34.09
GEF-Patagonia-2,3/11/2006,23:52,-40.21,-54.95,1017.8,352.2,12.87,12.55,34.21
GEF-Patagonia-2,3/12/2006,0:02,-40.24,-54.97,1017.8,350.8,13.00,12.43,34.17
GEF-Patagonia-2,3/12/2006,0:12,-40.27,-54.98,1018.0,351.5,12.91,12.54,34.18
GEF-Patagonia-2,3/12/2006,0:33,-40.33,-55.02,1017.8,346.8,12.76,12.40,34.22
GEF-Patagonia-2,3/12/2006,0:43,-40.35,-55.03,1017.9,340.9,12.90,12.42,34.20
GEF-Patagonia-2,3/12/2006,0:53,-40.38,-55.05,1017.8,342.9,12.81,12.50,34.15
GEF-Patagonia-2,3/12/2006,1:03,-40.41,-55.07,1017.9,338.7,12.82,12.31,34.14
GEF-Patagonia-2,3/12/2006,1:13,-40.44,-55.08,1017.9,336.6,12.84,12.27,34.14
GEF-Patagonia-2,3/12/2006,1:23,-40.47,-55.1,1017.9,338.3,12.84,12.46,34.14
GEF-Patagonia-2,3/12/2006,2:10,-40.59,-55.18,1017.9,314.6,13.66,13.29,34.15
GEF-Patagonia-2,3/12/2006,2:20,-40.62,-55.2,1018.1,314.4,13.65,13.39,34.14
GEF-Patagonia-2,3/12/2006,2:29,-40.65,-55.21,1017.9,313.2,13.85,13.37,34.15
GEF-Patagonia-2,3/12/2006,2:39,-40.68,-55.23,1018.1,318.0,13.83,13.41,34.15
GEF-Patagonia-2,3/12/2006,2:49,-40.71,-55.24,1018.2,323.0,13.76,13.39,34.16
GEF-Patagonia-2,3/12/2006,2:59,-40.74,-55.26,1017.9,320.3,14.20,13.82,34.17
GEF-Patagonia-2,3/12/2006,3:19,-40.8,-55.29,1018.0,313.8,14.62,14.31,34.16
GEF-Patagonia-2,3/12/2006,3:29,-40.83,-55.31,1017.7,311.1,14.84,14.33,34.16
GEF-Patagonia-2,3/12/2006,3:39,-40.86,-55.33,1017.6,315.3,14.81,14.60,34.15
GEF-Patagonia-2,3/12/2006,3:49,-40.89,-55.35,1017.3,314.0,14.70,14.40,34.15
GEF-Patagonia-2,3/12/2006,3:59,-40.91,-55.38,1017.2,313.7,14.74,14.49,34.15
GEF-Patagonia-2,3/12/2006,4:09,-40.93,-55.41,1017.0,311.3,14.71,14.20,34.15
GEF-Patagonia-2,3/12/2006,4:29,-40.98,-55.46,1017.0,316.4,14.60,14.21,34.15
GEF-Patagonia-2,3/12/2006,4:40,-40.99,-55.48,1016.8,313.7,14.68,14.43,34.15
GEF-Patagonia-2,3/12/2006,4:50,-40.99,-55.49,1016.7,315.0,14.64,14.39,34.15
GEF-Patagonia-2,3/12/2006,5:00,-41,-55.5,1016.5,311.1,14.80,14.35,34.15
GEF-Patagonia-2,3/12/2006,5:10,-41.01,-55.51,1016.2,312.4,14.63,14.43,34.14
GEF-Patagonia-2,3/12/2006,5:20,-41.02,-55.52,1016.2,307.4,14.76,14.42,34.15
GEF-Patagonia-2,3/12/2006,5:40,-41.07,-55.57,1016.1,303.7,14.99,14.63,34.16
GEF-Patagonia-2,3/12/2006,5:50,-41.1,-55.6,1016.1,305.5,14.94,14.62,34.16
GEF-Patagonia-2,3/12/2006,6:00,-41.12,-55.62,1016.1,303.1,15.07,14.63,34.16
GEF-Patagonia-2,3/12/2006,6:10,-41.15,-55.65,1016.1,307.0,14.90,14.70,34.15
GEF-Patagonia-2,3/12/2006,6:20,-41.17,-55.67,1016.0,303.5,15.04,14.62,34.15
GEF-Patagonia-2,3/12/2006,6:31,-41.2,-55.7,1016.0,309.2,15.09,14.66,34.15
GEF-Patagonia-2,3/12/2006,6:51,-41.25,-55.75,1016.0,317.8,14.89,14.51,34.15
GEF-Patagonia-2,3/12/2006,7:01,-41.28,-55.78,1015.9,318.3,14.83,14.49,34.17
GEF-Patagonia-2,3/12/2006,7:11,-41.3,-55.8,1015.7,319.5,14.79,14.44,34.17
GEF-Patagonia-2,3/12/2006,7:21,-41.33,-55.83,1015.6,319.4,14.96,14.55,34.17
GEF-Patagonia-2,3/12/2006,7:31,-41.36,-55.85,1015.4,321.8,14.98,14.58,34.17
GEF-Patagonia-2,3/12/2006,7:41,-41.38,-55.88,1015.8,320.8,15.02,14.70,34.17
GEF-Patagonia-2,3/12/2006,8:01,-41.42,-55.92,1015.9,323.0,14.97,14.67,34.19
GEF-Patagonia-2,3/12/2006,8:11,-41.42,-55.93,1015.7,321.7,14.99,14.70,34.18
GEF-Patagonia-2,3/12/2006,8:21,-41.42,-55.93,1015.9,319.2,14.91,14.56,34.18
GEF-Patagonia-2,3/12/2006,8:31,-41.42,-55.93,1015.9,318.3,14.92,14.55,34.18
GEF-Patagonia-2,3/12/2006,8:42,-41.42,-55.93,1015.9,317.9,14.98,14.61,34.18
GEF-Patagonia-2,3/12/2006,8:52,-41.42,-55.93,1016.0,318.5,14.93,14.66,34.18
GEF-Patagonia-2,3/12/2006,9:37,-41.42,-55.94,1016.3,318.9,14.93,14.65,34.18
GEF-Patagonia-2,3/12/2006,9:47,-41.42,-55.94,1016.2,318.0,14.93,14.61,34.18
GEF-Patagonia-2,3/12/2006,9:57,-41.43,-55.94,1016.2,317.6,14.88,14.55,34.18
GEF-Patagonia-2,3/12/2006,10:07,-41.43,-55.94,1016.3,317.3,14.83,14.49,34.18
GEF-Patagonia-2,3/12/2006,10:17,-41.43,-55.94,1016.2,315.6,15.10,14.58,34.18
GEF-Patagonia-2,3/12/2006,10:27,-41.43,-55.94,1016.3,318.3,14.91,14.52,34.18
GEF-Patagonia-2,3/12/2006,10:48,-41.41,-56.01,1016.3,315.3,14.93,14.63,34.17
GEF-Patagonia-2,3/12/2006,10:58,-41.4,-56.05,1016.2,312.3,14.97,14.61,34.15
GEF-Patagonia-2,3/12/2006,11:08,-41.39,-56.09,1016.2,311.1,14.86,14.42,34.16
GEF-Patagonia-2,3/12/2006,11:18,-41.38,-56.13,1016.3,314.8,14.65,14.30,34.15
GEF-Patagonia-2,3/12/2006,11:28,-41.36,-56.17,1016.4,317.8,14.19,13.78,34.17
GEF-Patagonia-2,3/12/2006,11:38,-41.35,-56.21,1016.4,318.9,14.26,13.82,34.18
GEF-Patagonia-2,3/12/2006,11:58,-41.33,-56.29,1016.3,329.3,13.35,12.90,34.18
GEF-Patagonia-2,3/12/2006,12:08,-41.32,-56.33,1016.2,331.8,13.25,12.85,34.22
GEF-Patagonia-2,3/12/2006,12:18,-41.31,-56.38,1016.1,330.7,13.21,12.80,34.21
GEF-Patagonia-2,3/12/2006,12:29,-41.31,-56.41,1016.3,333.9,12.98,12.74,34.21
GEF-Patagonia-2,3/12/2006,12:39,-41.3,-56.42,1016.5,333.9,13.07,12.80,34.20
GEF-Patagonia-2,3/12/2006,12:49,-41.3,-56.42,1016.5,332.7,13.12,12.67,34.20
GEF-Patagonia-2,3/12/2006,13:09,-41.3,-56.42,1016.4,334.3,13.14,12.76,34.21
GEF-Patagonia-2,3/12/2006,13:19,-41.3,-56.42,1016.4,332.7,13.28,12.75,34.21
GEF-Patagonia-2,3/12/2006,13:29,-41.3,-56.42,1016.4,338.5,13.00,12.82,34.21
GEF-Patagonia-2,3/12/2006,13:38,-41.3,-56.42,1016.4,338.1,13.11,12.88,34.22
GEF-Patagonia-2,3/12/2006,13:49,-41.3,-56.42,1016.5,337.7,13.14,12.88,34.22
GEF-Patagonia-2,3/12/2006,13:59,-41.3,-56.42,1016.4,335.6,13.32,12.91,34.22
GEF-Patagonia-2,3/12/2006,14:19,-41.29,-56.44,1016.4,335.1,13.41,12.99,34.22
GEF-Patagonia-2,3/12/2006,14:29,-41.28,-56.45,1016.3,335.0,13.50,13.10,34.21
GEF-Patagonia-2,3/12/2006,14:39,-41.28,-56.46,1016.4,336.3,13.55,13.22,34.21
GEF-Patagonia-2,3/12/2006,14:49,-41.27,-56.46,1016.4,336.3,13.56,13.24,34.20
GEF-Patagonia-2,3/12/2006,14:59,-41.27,-56.47,1016.2,334.7,13.55,13.16,34.20
GEF-Patagonia-2,3/12/2006,15:10,-41.26,-56.5,1016.1,336.5,13.40,13.05,34.20
GEF-Patagonia-2,3/12/2006,15:29,-41.23,-56.58,1015.9,340.4,12.09,11.65,34.01
GEF-Patagonia-2,3/12/2006,15:39,-41.21,-56.62,1015.8,343.3,12.18,11.76,34.01
GEF-Patagonia-2,3/12/2006,15:49,-41.2,-56.66,1015.6,342.9,12.38,11.93,34.04
GEF-Patagonia-2,3/12/2006,15:59,-41.19,-56.7,1015.5,342.2,12.56,12.20,34.01
GEF-Patagonia-2,3/12/2006,16:09,-41.18,-56.74,1015.4,340.0,12.52,12.15,33.98
GEF-Patagonia-2,3/12/2006,16:19,-41.17,-56.78,1015.5,338.6,12.69,12.23,33.98
GEF-Patagonia-2,3/12/2006,17:06,-41.14,-56.9,1015.3,329.5,13.10,12.61,33.86
GEF-Patagonia-2,3/12/2006,17:16,-41.14,-56.9,1015.3,332.7,13.00,12.72,33.87
GEF-Patagonia-2,3/12/2006,17:26,-41.14,-56.9,1015.3,334.3,12.97,12.70,33.87
GEF-Patagonia-2,3/12/2006,17:36,-41.14,-56.89,1015.1,335.7,12.92,12.66,33.88
GEF-Patagonia-2,3/12/2006,17:46,-41.14,-56.89,1014.9,336.1,12.88,12.57,33.88
GEF-Patagonia-2,3/12/2006,17:56,-41.14,-56.89,1014.9,335.8,13.06,12.68,33.88
GEF-Patagonia-2,3/12/2006,18:16,-41.13,-56.9,1014.5,336.5,13.05,12.76,33.88
GEF-Patagonia-2,3/12/2006,18:26,-41.12,-56.91,1014.6,330.9,13.20,12.75,33.87
GEF-Patagonia-2,3/12/2006,18:36,-41.12,-56.92,1014.4,329.7,13.11,12.73,33.85
GEF-Patagonia-2,3/12/2006,18:46,-41.11,-56.92,1014.3,328.0,13.09,12.75,33.85
GEF-Patagonia-2,3/12/2006,18:56,-41.11,-56.95,1014.2,325.6,13.18,12.81,33.83
GEF-Patagonia-2,3/12/2006,19:06,-41.1,-57,1014.1,311.8,12.99,12.57,33.81
GEF-Patagonia-2,3/12/2006,19:26,-41.08,-57.09,1013.9,308.4,13.47,13.00,33.80
GEF-Patagonia-2,3/12/2006,19:36,-41.07,-57.12,1013.7,311.6,13.61,13.27,33.82
GEF-Patagonia-2,3/12/2006,19:46,-41.06,-57.17,1013.6,306.5,13.73,13.31,33.82
GEF-Patagonia-2,3/12/2006,19:56,-41.04,-57.2,1013.4,313.1,13.61,13.25,33.83
GEF-Patagonia-2,3/12/2006,20:06,-41.03,-57.25,1013.3,314.7,13.69,13.27,33.84
GEF-Patagonia-2,3/12/2006,20:16,-41.01,-57.28,1013.1,308.1,13.77,13.39,33.83
GEF-Patagonia-2,3/12/2006,20:37,-41,-57.32,1013.0,325.6,13.36,12.76,33.85
GEF-Patagonia-2,3/12/2006,20:47,-41,-57.32,1013.0,332.7,13.13,12.86,33.85
GEF-Patagonia-2,3/12/2006,20:57,-41,-57.32,1013.1,330.5,13.23,12.83,33.85
GEF-Patagonia-2,3/12/2006,21:07,-41,-57.32,1012.9,329.2,13.36,12.92,33.84
GEF-Patagonia-2,3/12/2006,21:17,-41,-57.31,1012.9,328.1,13.34,12.83,33.83
GEF-Patagonia-2,3/12/2006,21:27,-41.01,-57.31,1012.9,329.9,13.30,13.13,33.83
GEF-Patagonia-2,3/12/2006,21:46,-41.01,-57.31,1012.9,320.1,13.43,13.14,33.82
GEF-Patagonia-2,3/12/2006,21:56,-41,-57.32,1012.9,315.4,13.40,13.11,33.83
GEF-Patagonia-2,3/12/2006,22:07,-41,-57.33,1012.8,318.0,13.36,12.89,33.83
GEF-Patagonia-2,3/12/2006,22:17,-41,-57.34,1012.9,325.8,13.14,12.83,33.83
GEF-Patagonia-2,3/12/2006,22:27,-40.99,-57.36,1012.7,326.9,13.00,12.65,33.83
GEF-Patagonia-2,3/12/2006,22:37,-40.98,-57.39,1012.5,333.6,12.97,12.75,33.84
GEF-Patagonia-2,3/12/2006,22:57,-40.95,-57.47,1012.1,332.7,14.26,14.03,33.76
GEF-Patagonia-2,3/12/2006,23:07,-40.93,-57.51,1012.1,326.9,14.40,14.13,33.76
GEF-Patagonia-2,3/12/2006,23:17,-40.92,-57.55,1012.1,320.6,14.69,14.27,33.74
GEF-Patagonia-2,3/12/2006,23:27,-40.9,-57.59,1012.0,315.9,14.57,14.22,33.73
GEF-Patagonia-2,3/12/2006,23:37,-40.89,-57.63,1012.3,316.3,14.80,14.59,33.72
GEF-Patagonia-2,3/12/2006,23:47,-40.88,-57.67,1012.2,316.2,15.10,14.98,33.70
GEF-Patagonia-2,3/13/2006,0:33,-40.86,-57.73,1012.2,317.9,15.55,15.27,33.67
GEF-Patagonia-2,3/13/2006,0:43,-40.86,-57.74,1012.1,316.7,15.61,15.15,33.67
GEF-Patagonia-2,3/13/2006,0:53,-40.86,-57.74,1012.1,317.5,15.56,15.17,33.67
GEF-Patagonia-2,3/13/2006,1:03,-40.87,-57.74,1011.9,316.6,15.56,15.24,33.67
GEF-Patagonia-2,3/13/2006,1:14,-40.87,-57.74,1011.9,314.4,15.43,15.16,33.67
GEF-Patagonia-2,3/13/2006,1:24,-40.87,-57.74,1012.0,308.9,15.50,15.10,33.67
GEF-Patagonia-2,3/13/2006,1:43,-40.87,-57.76,1011.8,306.0,15.34,15.14,33.67
GEF-Patagonia-2,3/13/2006,1:53,-40.87,-57.77,1011.7,305.7,15.40,15.17,33.67
GEF-Patagonia-2,3/13/2006,2:03,-40.86,-57.78,1011.6,305.8,15.44,15.17,33.67
GEF-Patagonia-2,3/13/2006,2:13,-40.85,-57.81,1011.2,304.7,15.57,15.22,33.66
GEF-Patagonia-2,3/13/2006,2:23,-40.84,-57.85,1011.0,307.8,15.60,15.42,33.66
GEF-Patagonia-2,3/13/2006,2:34,-40.82,-57.88,1011.0,306.9,15.67,15.35,33.66
GEF-Patagonia-2,3/13/2006,2:54,-40.78,-57.95,1010.8,308.2,15.85,15.56,33.64
GEF-Patagonia-2,3/13/2006,3:04,-40.77,-57.99,1010.7,310.2,15.84,15.61,33.63
GEF-Patagonia-2,3/13/2006,3:14,-40.75,-58.03,1010.9,309.3,16.08,15.64,33.63
GEF-Patagonia-2,3/13/2006,3:24,-40.74,-58.07,1010.5,311.5,15.92,15.52,33.63
GEF-Patagonia-2,3/13/2006,3:34,-40.72,-58.11,1010.6,312.4,16.11,15.70,33.55
GEF-Patagonia-2,3/13/2006,3:44,-40.71,-58.13,1010.5,317.5,16.30,16.10,33.55
GEF-Patagonia-2,3/13/2006,4:04,-40.71,-58.15,1010.5,314.4,16.54,16.12,33.55
GEF-Patagonia-2,3/13/2006,4:14,-40.71,-58.15,1010.5,314.3,16.50,16.09,33.55
GEF-Patagonia-2,3/13/2006,4:24,-40.71,-58.16,1010.4,317.5,16.46,16.23,33.55
GEF-Patagonia-2,3/13/2006,4:34,-40.72,-58.2,1010.4,319.4,16.54,16.35,33.55
GEF-Patagonia-2,3/13/2006,4:44,-40.73,-58.24,1010.1,320.5,16.58,16.35,33.55
GEF-Patagonia-2,3/13/2006,4:54,-40.74,-58.29,1010.0,321.8,16.59,16.45,33.55
GEF-Patagonia-2,3/13/2006,5:14,-40.75,-58.37,1009.4,317.4,16.64,16.27,33.54
GEF-Patagonia-2,3/13/2006,5:24,-40.76,-58.41,1009.2,317.9,16.60,16.28,33.58
GEF-Patagonia-2,3/13/2006,5:34,-40.77,-58.45,1008.9,318.7,16.69,16.42,33.48
GEF-Patagonia-2,3/13/2006,5:44,-40.78,-58.49,1008.8,316.7,16.79,16.41,33.38
GEF-Patagonia-2,3/13/2006,5:54,-40.79,-58.54,1008.5,319.4,16.68,16.48,33.56
GEF-Patagonia-2,3/13/2006,6:04,-40.8,-58.58,1008.5,318.4,16.90,16.56,33.54
GEF-Patagonia-2,3/13/2006,6:25,-40.81,-58.66,1008.5,313.9,16.77,16.25,33.57
GEF-Patagonia-2,3/13/2006,6:34,-40.82,-58.7,1008.4,315.1,16.32,16.10,33.60
GEF-Patagonia-2,3/13/2006,6:44,-40.82,-58.72,1008.3,314.4,16.45,16.17,33.60
GEF-Patagonia-2,3/13/2006,6:54,-40.83,-58.73,1008.4,313.3,16.31,16.07,33.60
GEF-Patagonia-2,3/13/2006,7:04,-40.83,-58.75,1008.3,313.8,16.29,16.13,33.60
GEF-Patagonia-2,3/13/2006,7:14,-40.83,-58.76,1008.3,312.1,16.40,16.12,33.59
GEF-Patagonia-2,3/13/2006,8:00,-40.84,-58.76,1008.6,317.7,16.41,16.16,33.59
GEF-Patagonia-2,3/13/2006,8:11,-40.84,-58.76,1008.6,319.1,16.30,16.17,33.60
GEF-Patagonia-2,3/13/2006,8:21,-40.84,-58.76,1008.5,316.9,16.46,16.14,33.60
GEF-Patagonia-2,3/13/2006,8:30,-40.85,-58.79,1008.3,317.6,16.52,16.23,33.59
GEF-Patagonia-2,3/13/2006,8:40,-40.85,-58.83,1008.4,319.6,16.41,16.20,33.58
GEF-Patagonia-2,3/13/2006,8:50,-40.86,-58.87,1008.4,318.9,16.51,16.19,33.58
GEF-Patagonia-2,3/13/2006,9:10,-40.87,-58.95,1008.5,322.7,16.50,16.30,33.55
GEF-Patagonia-2,3/13/2006,9:20,-40.88,-59,1008.6,319.8,16.54,16.19,33.55
GEF-Patagonia-2,3/13/2006,9:31,-40.89,-59.04,1008.6,322.4,16.44,16.25,33.55
GEF-Patagonia-2,3/13/2006,9:41,-40.89,-59.09,1008.6,323.0,16.66,16.42,33.54
GEF-Patagonia-2,3/13/2006,9:51,-40.9,-59.13,1008.6,321.5,16.85,16.44,33.52
GEF-Patagonia-2,3/13/2006,10:01,-40.9,-59.17,1008.5,319.6,16.91,16.49,33.54
GEF-Patagonia-2,3/13/2006,10:21,-40.92,-59.26,1008.4,322.9,17.05,16.66,33.53
GEF-Patagonia-2,3/13/2006,10:31,-40.92,-59.3,1008.4,325.6,17.07,16.81,33.53
GEF-Patagonia-2,3/13/2006,10:41,-40.93,-59.34,1008.1,325.4,17.20,16.87,33.54
GEF-Patagonia-2,3/13/2006,10:51,-40.94,-59.39,1007.8,327.0,17.29,17.01,33.54